User: anonymous   Login
Location: Unspecified
(0.0000°N, 0.0000°E)
Time: 06:15:33
(UTC+00:00)
Language:

Landsat 7 - Orbit

View from above orbital plane
View from above orbital plane
View from above satellite
View from above satellite

Ground track
Ground track

The orbit data is extracted from the following two-line orbital elements,

1 25682U 99020A   14354.80109607  .00000796  00000-0  18668-3 0  9063
2 25682 098.2197 062.0019 0000643 091.0876 269.0387 14.57106864834162
Epoch (UTC): 20 December 2014 19:13:34
Eccentricity: 0.0000643
inclination: 98.2197°
perigee height: 702 km
apogee height: 703 km
right ascension of ascending node: 62.0019°
argument of perigee: 91.0876°
revolutions per day: 14.57106864
mean anomaly at epoch: 269.0387°
orbit number at epoch: 83416

The dashed part of the orbit path shows where the satellite is in the earth's shadow,  

DLR